Terug naar catalogus

ATLAS 5 CENTAUR DEB

LostHEO
NORAD 46859·DEBRIS·🇺🇸 United States

Gelanceerd Oct 17, 2018 vanaf Cape Canaveral Space Force Station

Loading…

Volgende Passages (komende 24 uur)

TLE

VerouderdSource: Space-Track

Epoch: Sep 10, 2023, 20:52 UTC

1 46859U 18079DQ  23253.86946354 -.00000204  00000-0  00000+0 0  9993
2 46859  12.3899  61.8489 4971307 278.3443  30.3876  2.04155801 21314

Volg ATLAS 5 CENTAUR DEB in realtime met AllMySat

Download on the App Store